FW1671 Weather Reports


Display with metric or nautical units.
time (UTC)temp
F
wind
direction
speed
MPH
gust
MPH
rain 1hr
in
rain 24hr
in
rain mn
in
humidity
%
barometer
mb
20260503185058 73 165 3.0 11.0 0.00 0.00 0.00 34 1017.7
20260503184605 73 263 6.0 11.0 0.00 0.00 0.00 35 1017.7
20260503184102 73 192 3.0 9.0 0.00 0.00 0.00 34 1017.9
20260503183559 74 241 5.0 9.0 0.00 0.00 0.00 33 1017.9
20260503183103 74 16 3.0 6.0 0.00 0.00 0.00 35 1017.9
20260503182558 73 355 1.0 7.0 0.00 0.00 0.00 37 1017.9
20260503182058 72 279 3.0 7.0 0.00 0.00 0.00 36 1018.1
20260503181605 72 259 2.0 8.0 0.00 0.00 0.00 37 1018.2
20260503181059 72 233 2.0 8.0 0.00 0.00 0.00 35 1018.2
20260503180559 72 286 1.0 5.0 0.00 0.00 0.00 37 1018.3
20260503180059 72 296 1.0 9.0 0.00 0.00 0.00 35 1018.2
20260503180000 72 227 2.0 9.0 0.00 0.00 0.00 35 1018.3
20260503175558 73 223 4.0 9.0 0.00 0.00 0.00 35 1018.4
20260503175058 73 190 1.0 9.0 0.00 0.00 0.00 36 1018.3
20260503174603 73 242 4.0 9.0 0.00 0.00 0.00 36 1018.3
20260503174059 72 25 1.0 6.0 0.00 0.00 0.00 38 1018.3
20260503173601 71 340 3.0 9.0 0.00 0.00 0.00 38 1018.4
20260503173105 72 211 3.0 9.0 0.00 0.00 0.00 36 1018.4
20260503172558 72 182 4.0 9.0 0.00 0.00 0.00 34 1018.4
20260503172058 72 182 3.0 9.0 0.00 0.00 0.00 37 1018.6
20260503171604 72 256 4.0 8.0 0.00 0.00 0.00 38 1018.7
20260503171058 72 86 1.0 5.0 0.00 0.00 0.00 40 1018.7
20260503170559 71 232 1.0 5.0 0.00 0.00 0.00 39 1018.8
20260503150558 67 130 2.0 9.0 0.00 0.01 0.00 44 1019.9
20260503131058 52 16 1.0 4.0 0.00 0.08 0.00 95 1019.4
20260503130558 52 84 1.0 4.0 0.00 0.08 0.00 95 1019.3
20260503110558 44 28 0.0 0.0 0.00 0.28 0.00 94 1018.4
20260503100110 44 28 0.0 0.0 0.00 0.33 0.00 94 1017.4
20260503081602 46 28 0.0 0.0 0.00 0.57 0.00 93 1016.3
20260503081058 46 28 0.0 0.0 0.00 0.57 0.00 93 1016.2
20260503080600 46 28 0.0 0.0 0.00 0.57 0.00 93 1016.2
20260503072558 47 28 0.0 0.0 0.00 0.62 0.00 92 1016.0
20260503072058 47 28 0.0 0.0 0.00 0.62 0.00 93 1016.0
20260503071601 48 28 0.0 1.0 0.00 0.62 0.00 92 1016.0
20260503071059 48 28 0.0 1.0 0.00 0.62 0.00 92 1015.9
20260503070602 48 28 0.0 0.0 0.00 0.62 0.00 92 1015.9
20260503060118 50 28 0.0 1.0 0.00 0.62 0.00 91 1015.5
20260503055101 50 28 0.0 1.0 0.00 0.62 0.00 91 1015.5
20260503054620 50 28 0.0 0.0 0.00 0.62 0.00 91 1015.5
20260503054059 51 28 0.0 1.0 0.00 0.62 0.00 91 1015.5
20260503053559 51 28 0.0 1.0 0.00 0.62 0.00 91 1015.5
20260503053058 51 28 0.0 1.0 0.00 0.62 0.00 91 1015.4
20260503052558 51 28 0.0 1.0 0.00 0.62 0.00 91 1015.4
20260503052058 51 28 0.0 0.0 0.00 0.62 0.00 91 1015.4
20260503051558 52 28 0.0 0.0 0.00 0.62 0.00 91 1015.4
20260503051058 52 28 0.0 1.0 0.00 0.62 0.00 91 1015.3
20260503050558 52 28 0.0 1.0 0.00 0.62 0.00 91 1015.3
20260503050058 52 28 0.0 2.0 0.00 0.62 0.00 91 1015.2
20260503050002 52 28 0.0 2.0 0.00 0.62 0.00 91 1015.2
20260503045600 53 28 1.0 2.0 0.00 0.62 0.00 91 1015.2
20260503045100 53 28 0.0 1.0 0.00 0.62 0.00 91 1015.1
20260503044600 53 28 0.0 1.0 0.00 0.62 0.00 90 1015.1
20260503044100 53 28 0.0 1.0 0.00 0.62 0.00 90 1015.0
20260503043600 53 28 0.0 2.0 0.00 0.62 0.00 90 1014.9
20260503043101 54 28 0.0 2.0 0.00 0.62 0.00 90 1014.7
20260503042601 54 28 0.0 1.0 0.00 0.62 0.00 90 1014.6
20260503042100 54 28 0.0 1.0 0.00 0.62 0.00 90 1014.7
20260503041600 54 28 0.0 0.0 0.00 0.62 0.00 90 1014.7
20260503041103 54 28 0.0 1.0 0.00 0.62 0.00 90 1014.8
20260503040600 54 28 0.0 1.0 0.00 0.62 0.00 90 1014.8
20260503040106 54 28 0.0 2.0 0.00 0.62 0.00 90 1015.0
20260503040004 54 28 0.0 2.0 0.00 0.62 0.00 90 1015.0
20260503035600 54 28 0.0 3.0 0.00 0.62 0.62 90 1015.1
20260503035100 54 28 1.0 3.0 0.00 0.62 0.62 90 1015.0
20260503034614 54 103 0.0 2.0 0.00 0.62 0.62 90 1014.7
20260503034100 54 103 0.0 2.0 0.00 0.62 0.62 90 1014.6
20260503033559 54 103 0.0 3.0 0.00 0.62 0.62 90 1014.7
20260503033109 53 103 1.0 3.0 0.00 0.62 0.62 90 1014.9
20260503032601 53 103 0.0 2.0 0.00 0.62 0.62 90 1014.8
20260503032101 53 103 0.0 2.0 0.00 0.62 0.62 90 1014.8
20260503031600 53 103 1.0 2.0 0.00 0.62 0.62 90 1014.8
20260503031100 53 103 0.0 0.0 0.00 0.62 0.62 90 1014.9
20260503030559 53 103 0.0 1.0 0.00 0.62 0.62 90 1014.9
20260503030100 54 103 0.0 1.0 0.00 0.62 0.62 90 1014.8
20260503030002 54 103 0.0 1.0 0.00 0.62 0.62 90 1014.8
20260503025600 54 103 0.0 2.0 0.00 0.62 0.62 90 1014.8
20260503025100 54 103 0.0 2.0 0.00 0.62 0.62 90 1014.8
20260503024600 54 103 0.0 1.0 0.00 0.62 0.62 90 1014.6
20260503024101 54 103 0.0 1.0 0.00 0.62 0.62 90 1014.5
20260503023559 54 103 0.0 2.0 0.00 0.62 0.62 90 1014.3
20260503023110 54 103 0.0 2.0 0.00 0.62 0.62 90 1014.3
20260503022600 54 103 0.0 2.0 0.00 0.62 0.62 90 1014.1
20260503022100 54 103 0.0 1.0 0.00 0.62 0.62 90 1014.0
20260503021600 54 103 0.0 0.0 0.00 0.62 0.62 89 1013.9
20260503021100 54 103 0.0 0.0 0.00 0.62 0.62 89 1013.7
20260503020600 54 103 0.0 0.0 0.00 0.62 0.62 89 1013.7
20260503020100 54 103 0.0 0.0 0.00 0.62 0.62 89 1013.6
20260503020003 54 103 0.0 0.0 0.00 0.62 0.62 89 1013.6
20260503015559 54 103 0.0 0.0 0.00 0.62 0.62 89 1013.5
20260503015059 54 103 0.0 1.0 0.00 0.62 0.62 88 1013.5
20260503014603 54 103 0.0 1.0 0.00 0.62 0.62 88 1013.4
20260503014100 54 103 0.0 0.0 0.00 0.62 0.62 88 1013.4
20260503013600 54 103 0.0 0.0 0.00 0.62 0.62 88 1013.3
20260503013100 54 103 0.0 0.0 0.00 0.62 0.62 88 1013.2
20260503012559 54 103 0.0 0.0 0.00 0.62 0.62 87 1013.0
20260503012100 54 103 0.0 0.0 0.00 0.62 0.62 87 1013.0
20260503011608 54 103 0.0 0.0 0.00 0.62 0.62 87 1012.8
20260503011059 54 103 0.0 0.0 0.00 0.62 0.62 87 1012.9
20260503010600 54 103 0.0 0.0 0.00 0.62 0.62 87 1012.8
20260503010100 54 103 0.0 0.0 0.00 0.62 0.62 86 1012.8
20260503010002 54 103 0.0 1.0 0.00 0.62 0.62 86 1012.8
20260503005600 54 103 0.0 1.0 0.00 0.62 0.62 86 1012.7
20260503005100 54 103 0.0 0.0 0.00 0.62 0.62 85 1012.7
20260503004601 54 103 0.0 1.0 0.00 0.62 0.62 85 1012.7
20260503004100 55 103 0.0 1.0 0.00 0.62 0.62 84 1012.6
20260503003600 55 103 0.0 1.0 0.00 0.62 0.62 84 1012.5
20260503003059 55 103 0.0 1.0 0.00 0.62 0.62 83 1012.4
20260503002601 55 103 0.0 1.0 0.00 0.62 0.62 82 1012.4
20260503002100 56 103 0.0 1.0 0.00 0.62 0.62 81 1012.3
20260503001600 56 103 0.0 0.0 0.00 0.62 0.62 81 1012.2
20260503001103 57 103 0.0 0.0 0.00 0.62 0.62 80 1012.1
20260503000559 57 103 0.0 0.0 0.00 0.62 0.62 79 1012.1
20260503000059 58 103 0.0 0.0 0.00 0.62 0.62 78 1012.0
20260503000002 58 103 0.0 1.0 0.00 0.62 0.62 78 1012.0
20260502235559 58 103 0.0 1.0 0.00 0.62 0.62 77 1012.0
20260502235101 59 103 0.0 1.0 0.00 0.62 0.62 75 1011.9
20260502234605 59 103 0.0 0.0 0.00 0.62 0.62 74 1011.9
20260502234100 60 103 0.0 2.0 0.00 0.62 0.62 73 1011.8
20260502233600 60 103 0.0 2.0 0.00 0.62 0.62 70 1011.8
20260502233100 61 103 0.0 2.0 0.00 0.62 0.62 70 1011.5
20260502232601 61 103 0.0 2.0 0.00 0.62 0.62 68 1011.4
20260502232100 61 103 0.0 2.0 0.00 0.62 0.62 67 1011.4
20260502231611 61 103 0.0 2.0 0.00 0.62 0.62 68 1011.4
20260502231100 61 103 0.0 3.0 0.00 0.62 0.62 67 1011.3
20260502230603 61 103 0.0 4.0 0.00 0.62 0.62 68 1011.3
20260502230100 61 103 2.0 4.0 0.00 0.62 0.62 68 1011.3
20260502230003 61 85 1.0 3.0 0.00 0.62 0.62 68 1011.3
20260502225559 60 85 1.0 3.0 0.00 0.62 0.62 68 1011.4
20260502225059 60 85 0.0 3.0 0.00 0.62 0.62 69 1011.6
20260502224601 60 85 1.0 3.0 0.00 0.62 0.62 70 1011.6
20260502224100 60 34 0.0 2.0 0.00 0.62 0.62 69 1011.7
20260502223600 60 34 1.0 4.0 0.00 0.62 0.62 69 1011.7
20260502223106 60 34 0.0 4.0 0.00 0.62 0.62 69 1011.5
20260502222600 60 44 1.0 5.0 0.00 0.62 0.62 68 1011.4
20260502222102 60 67 1.0 6.0 0.00 0.62 0.62 68 1011.4
20260502221600 60 78 1.0 4.0 0.00 0.62 0.62 70 1011.4
20260502221059 60 42 1.0 3.0 0.00 0.62 0.62 68 1011.3
20260502220600 60 86 1.0 4.0 0.00 0.62 0.62 67 1011.3
20260502220100 60 30 2.0 6.0 0.00 0.62 0.62 68 1011.3
20260502220002 60 30 2.0 6.0 0.00 0.62 0.62 68 1011.3
20260502215600 60 24 3.0 6.0 0.00 0.62 0.62 69 1011.3
20260502215100 60 22 1.0 6.0 0.00 0.62 0.62 69 1011.3
20260502214559 60 33 2.0 6.0 0.00 0.62 0.62 69 1011.3
20260502214059 60 52 0.0 4.0 0.00 0.62 0.62 69 1011.3
20260502213559 60 51 0.0 4.0 0.00 0.62 0.62 69 1011.2
20260502213109 60 22 0.0 3.0 0.00 0.62 0.62 68 1011.1
20260502212600 60 123 0.0 5.0 0.00 0.62 0.62 68 1011.0
20260502212100 60 11 2.0 5.0 0.00 0.62 0.62 67 1011.0
20260502211600 60 107 1.0 5.0 0.00 0.62 0.62 67 1011.0
20260502211102 60 41 2.0 5.0 0.00 0.62 0.62 67 1011.0
20260502210600 60 79 1.0 4.0 0.00 0.62 0.62 67 1011.1
20260502210100 60 19 2.0 5.0 0.00 0.62 0.62 67 1011.1
20260502210009 60 355 2.0 5.0 0.00 0.62 0.62 68 1011.1
20260502205559 60 22 3.0 8.0 0.00 0.62 0.62 67 1011.2
20260502205059 60 20 1.0 8.0 0.00 0.62 0.62 68 1011.3
20260502205005 60 20 1.0 8.0 0.00 0.62 0.62 67 1011.3
20260502204618 60 21 2.0 6.0 0.00 0.62 0.62 68 1011.3
20260502204103 60 63 3.0 6.0 0.00 0.62 0.62 66 1011.3
20260502203600 60 33 3.0 6.0 0.00 0.62 0.62 68 1011.2
20260502203101 60 119 1.0 9.0 0.00 0.62 0.62 69 1011.3
20260502202601 59 82 3.0 10.0 0.00 0.62 0.62 68 1011.2
20260502202059 60 55 4.0 10.0 0.00 0.62 0.62 68 1011.3
20260502201559 60 335 2.0 11.0 0.00 0.62 0.62 73 1011.2
20260502201100 58 26 4.0 11.0 0.00 0.62 0.62 71 1011.3
20260502200600 58 23 3.0 8.0 0.00 0.62 0.62 73 1011.3
20260502200100 57 34 2.0 12.0 0.00 0.62 0.62 74 1011.4
20260502200002 57 25 0.0 12.0 0.00 0.62 0.62 74 1011.4
20260502195600 57 46 3.0 12.0 0.00 0.62 0.62 72 1011.5
20260502195059 57 24 2.0 10.0 0.00 0.62 0.62 73 1011.6
20260502194600 57 31 4.0 10.0 0.00 0.62 0.62 74 1011.7
20260502194101 57 32 2.0 11.0 0.00 0.62 0.62 74 1011.7
20260502193559 57 61 3.0 11.0 0.00 0.62 0.62 75 1011.8
20260502193100 57 9 2.0 6.0 0.00 0.62 0.62 77 1011.8
20260502192559 57 57 2.0 7.0 0.00 0.62 0.62 78 1011.7
20260502192059 57 355 1.0 9.0 0.00 0.62 0.62 78 1011.6
20260502191559 56 124 1.0 9.0 0.00 0.62 0.62 79 1011.6
20260502191059 56 28 3.0 9.0 0.00 0.62 0.62 79 1011.7
20260502190602 56 355 2.0 8.0 0.00 0.62 0.62 82 1011.7
20260502190100 56 38 3.0 8.0 0.00 0.62 0.62 84 1011.8
20260502190001 56 36 3.0 8.0 0.00 0.62 0.62 84 1011.9
20260502185559 56 78 3.0 6.0 0.00 0.62 0.62 84 1011.9